Theta_e
319 318 323 326 324 322 322 320 319 317 316 318 316 315 313 311 310 309 306 301 300 300 299 299 298 298 297
318 318 319 324 323 324 322 321 319 317 316 318 317 315 313 311 310 308 304 301 300 300 299 299 298 298 297
315 317 318 321 323 324 321 321 318 317 316 316 318 316 314 311 309 308 304 300 299 299 299 299 298 297 297
312 317 319 320 323 321 321 321 318 317 316 315 317 317 314 313 311 308 305 301 299 299 299 299 298 298 297
311 314 315 319 319 321 320 320 318 317 316 315 316 318 316 313 312 311 308 301 299 299 299 299 298 297 297
306 312 314 315 319 318 320 318 317 317 316 315 315 316 316 315 313 311 311 307 300 300 299 299 298 297 297
299 309 313 311 316 318 318 318 317 316 315 315 315 315 316 315 313 312 310 309 307 300 299 299 298 298 297
296 300 309 310 311 314 318 318 317 317 316 314 315 314 313 313 313 312 311 310 308 306 300 299 300 301 299
292 298 301 310 309 309 314 315 316 315 316 314 314 314 313 313 312 312 311 310 309 307 306 305 303 303 303
290 291 294 304 312 308 312 314 315 314 315 314 313 313 311 313 313 312 311 311 310 308 307 306 305 304 303
290 291 292 297 303 309 308 310 314 315 316 315 313 313 313 311 312 312 311 311 310 309 308 307 306 306 305
288 290 290 292 293 302 307 309 311 313 314 315 315 315 312 312 311 312 311 311 311 309 309 308 307 306 306
287 288 289 290 292 294 303 307 309 311 313 313 314 314 314 315 315 314 312 310 311 310 309 308 308 307 306
287 287 288 289 290 291 294 305 308 309 310 312 312 314 313 313 316 316 313 309 310 310 310 309 308 308 307
287 287 287 288 289 290 291 293 300 308 310 310 311 312 313 315 313 314 313 312 312 310 309 308 309 309 308
287 287 287 288 288 289 290 291 294 302 305 308 310 310 311 310 311 313 312 313 312 311 311 308 307 308 309
286 286 286 287 288 288 289 290 293 297 302 305 308 310 309 308 308 309 311 311 312 309 310 309 308 308 309
Wind_Speed
26 20 35 64 58 57 54 50 45 37 43 43 40 36 35 34 32 30 27 21 19 16 13 10 7 5 4
12 23 11 57 57 60 56 51 47 42 43 44 41 38 37 35 33 32 28 23 20 17 15 12 9 6 4
12 20 13 41 57 61 57 53 50 45 43 43 43 41 37 37 34 33 28 25 23 19 17 14 11 8 5
23 18 27 31 55 60 58 57 55 50 42 43 44 43 39 35 34 35 30 28 25 22 19 16 13 10 7
25 25 19 28 50 59 59 58 57 54 48 48 46 47 42 39 33 30 29 30 28 25 21 18 15 12 9
32 32 26 19 41 46 57 55 48 56 54 51 49 49 48 42 40 35 25 22 29 26 23 21 18 15 13
35 36 34 16 22 43 49 58 52 51 58 53 53 49 49 45 43 38 32 28 24 27 25 22 19 17 15
38 39 41 33 18 27 42 54 52 55 60 46 56 52 51 49 46 41 37 34 29 24 26 23 21 18 17
37 42 41 46 32 24 37 48 49 50 58 46 55 51 55 52 49 45 41 39 35 31 26 22 20 21 19
34 36 40 47 47 34 30 39 47 37 58 52 47 52 39 52 53 48 45 44 40 36 34 28 24 25 21
33 35 36 45 46 45 32 32 37 42 51 62 52 55 46 43 54 51 50 50 47 41 39 35 34 32 27
32 35 36 40 42 50 44 36 35 38 32 59 57 65 57 45 43 55 55 54 50 49 46 42 40 38 34
35 37 38 36 36 39 51 44 40 36 34 53 58 58 64 60 57 50 57 60 57 55 51 50 49 45 43
33 32 33 34 35 35 42 52 46 44 38 38 57 58 59 61 61 56 53 55 62 60 59 54 53 49 47
34 29 30 32 34 35 34 38 48 51 48 38 40 57 56 56 59 59 56 53 52 61 61 61 60 55 50
39 35 32 29 32 34 36 37 41 50 43 45 43 54 52 50 54 55 58 55 53 51 55 63 63 61 55
41 41 38 33 30 32 37 39 42 45 52 38 44 59 53 47 52 53 51 54 52 51 50 52 60 60 54
Wind_Direction
224 249 191 202 199 198 197 195 196 198 201 198 197 202 200 199 196 193 196 189 186 184 184 180 180 164 137
185 224 234 195 198 195 196 196 195 193 203 202 201 201 206 203 201 202 201 193 194 192 193 190 192 184 175
201 209 227 195 195 195 195 196 195 200 199 209 204 204 206 207 207 208 205 198 200 198 199 200 201 199 200
213 190 202 207 199 187 193 197 194 193 200 208 208 207 208 218 219 212 211 203 203 204 204 207 209 211 210
212 215 198 199 191 189 193 193 197 194 195 203 208 209 210 212 225 232 227 210 208 208 208 212 216 221 225
222 223 214 189 194 188 187 186 183 199 195 200 206 210 209 212 220 225 229 222 220 215 212 216 221 225 231
225 217 215 204 189 192 187 191 190 194 197 198 203 210 215 218 220 222 222 225 223 221 219 221 225 230 233
224 223 222 219 198 187 202 202 197 200 198 190 203 209 217 222 223 222 224 224 225 224 221 223 228 232 235
231 228 226 224 215 195 190 198 192 194 200 196 202 203 214 218 222 223 224 225 225 226 230 229 236 242 238
230 231 231 228 221 222 190 191 192 187 199 196 198 197 196 216 219 220 224 224 225 230 231 231 234 231 235
236 237 232 235 230 224 218 195 192 198 203 203 202 204 205 208 217 217 221 224 221 223 229 230 233 238 241
234 234 234 229 234 231 228 215 197 195 201 213 206 215 206 207 208 218 218 223 224 225 226 227 227 234 236
234 236 237 235 231 230 230 227 218 198 194 200 216 214 219 217 220 219 219 221 220 224 225 230 229 230 229
240 241 242 239 232 229 225 229 226 219 206 201 207 218 218 221 226 226 222 214 222 220 225 229 231 233 239
236 240 241 241 236 229 229 227 229 223 218 215 213 217 225 230 224 228 226 224 227 223 222 226 229 232 237
232 232 234 235 239 235 230 227 230 223 218 222 215 208 215 215 228 227 226 228 230 226 228 227 230 229 231
232 237 240 235 232 235 236 228 223 230 221 227 223 207 204 207 214 222 228 226 230 227 229 230 234 236 233